Regional Weather Roundup
Issued by NWS Charleston, SC

Current Version | Previous Version | Graphics & Text | Print | Product List | Glossary On
Versions: 1 2 3 4 5 6 7 8 9 10 11 12 13 14 15 16 17 18 19 20 21 22 23 24 25 26 27 28 29 30 31 32 33 34 35 36 37 38 39 40 41 42 43 44 45 46 47 48 49 50
000
ASUS42 KCHS 130526
RWRCHS

REGIONAL WEATHER ROUNDUP
NATIONAL WEATHER SERVICE CHARLESTON SC
1200 AM EST WED DEC 13 2017

NOTE: "FAIR" INDICATES FEW OR NO CLOUDS BELOW 12,000 FEET WITH NO
SIGNIFICANT WEATHER AND/OR OBSTRUCTIONS TO VISIBILITY.

NOT ALL STATIONS ARE QUALITY CONTROLLED. USE DATA WITH CAUTION...
ESPECIALLY DEWPOINT OBSERVATIONS.

SCZ027-030-031-034>040-042>050-130600-
...SOUTHEAST SOUTH CAROLINA...

CITY           SKY/WX    TMP DP  RH WIND       PRES   REMARKS
N CHARLESTON   PTCLDY    44  29  55 W9        29.89R
WATERFRONT PRK   N/A     47  30  51 NW8G15    29.74R
JOHNS ISLAND   FAIR      45  28  53 W7G14     29.89S
PINOPOLIS        N/A     46  34  61 NW16      29.80R
MONCKS CORNER  FAIR      41  25  52 W5        29.88R
SUMMERVILLE    FAIR      41  30  65 W5        29.90S
BEAUFORT MCAS  CLEAR     45  30  55 W8        29.91S
BEAUFORT ARPT  FAIR      43  30  61 W13G18    29.91S
HILTON HEAD IS CLEAR     46  28  49 NW9G16    29.93R
WALTERBORO     PTCLDY    41  27  56 W8        29.91S
ALLENDALE      FAIR      43  25  49 VRB6G20   29.91S

...SOUTHERN MIDLANDS AND PEE DEE...

CITY           SKY/WX    TMP DP  RH WIND       PRES   REMARKS
GEORGETOWN     FAIR      41  21  45 NW8       29.87R
KINGSTREE      FAIR      36  23  60 W5        29.88R WCI  32
ORANGEBURG     CLEAR     41  25  53 NW10      29.90R
BARNWELL         N/A     41  25  52 W5        29.92R
AIKEN          FAIR      36  21  55 W8        29.93S WCI  29
MANNING        FAIR      39  19  45 MISG      29.89R
COLUMBIA       CLEAR     39  26  59 W9        29.89R WCI  33
SUMTER         CLEAR     37  17  45 W5        29.86R WCI  33
FLORENCE       CLEAR     38  18  44 NW8       29.87R WCI  32
MYRTLE BEACH   CLEAR     42  21  43 NW9       29.86R
N MYRTLE BEACH CLEAR     42  14  32 NW9G17    29.84R

$$

GAZ063-065-086>088-099>101-113>116-118-119-134>141-150-130600-
...SOUTHEAST GEORGIA...

CITY           SKY/WX    TMP DP  RH WIND       PRES   REMARKS
SAVANNAH ARPT  CLEAR     44  30  57 W10       29.94S
HUNTER AAF     CLEAR     46  29  52 W16G22    29.91S
FORT STEWART   CLEAR     46  30  54 W12       29.93F
STATESBORO     CLEAR     43  27  53 NW9       29.95R
SYLVANIA       CLEAR     42  32  68 NW9       29.94S
CLAXTON        FAIR      46  32  59 W12       29.96S

...CSRA...CENTRAL AND FAR SOUTHEAST GEORGIA...

CITY           SKY/WX    TMP DP  RH WIND       PRES   REMARKS
THOMSON        CLEAR     37  22  55 NW9       29.99R WCI  31
AUGUSTA-BUSH   CLEAR     41  22  46 W10       29.93S
AUGUSTA-DANIEL CLEAR     41  22  46 W8        29.92S
SWAINSBORO     FAIR      41  32  70 W6        29.97R
VIDALIA        CLEAR     43  34  70 W6        29.97F
EASTMAN        FAIR      43  24  48 W6        30.02S
HAZLEHURST     FAIR      45  23  41 NW5       29.98S
ALMA           CLEAR     46  31  55 W10       29.99S
WAYCROSS       CLEAR     42  31  65 NW7       30.00R
JESUP          NOT AVBL
BAXLEY         FAIR      43  30  61 NW8G16    29.98S
BRUNSWICK      CLEAR     43  32  65 W5        29.98S
SAINT SIMONS   CLEAR     47  34  60 W8        29.97S

$$

SCZ027-028-034-036>038-045-046-048>050-GAZ119-141-130600-
...LAKE AND SUPPLEMENTAL COASTAL OBSERVATIONS...

STATION/POSITION TIME  TEMP    WIND        PRES    WAVE   SWELL
                       AIR SEA DIR/SP/G            HT/PER HT/PER/DIR
                 (UTC) (F)     (DEG/KT/KT) (MB)    (FT/S) (FT/S/D)
WINYAH BAY       0445   45     310/  7     1011.0R
LAKE MURRAY      0450   40     280/  6/  9 1011.5R
ACE BASIN NERRS  0445   45     290/  4     1012.0S
FORT PULASKI     0500   47 55  290/ 17/ 20 1013.7
SAPELO ISLAND    NOT AVBL

$$

ANZ835-935-AMZ111-154-330-350-352-354-370-450-454-472-130600-
...C-MAN AND BUOY OBSERVATIONS...

STATION/POSITION TIME  TEMP    WIND        PRES    WAVE   SWELL
                       AIR SEA DIR/SP/G            HT/PER HT/PER/DIR
                 (UTC) (F)     (DEG/KT/KT) (MB)    (FT/S) (FT/S/D)
BUOY 41004       0510   53 74  300/ 27/ 39 1010.6
BUOY 41008       0450   52 60  290/ 23/ 31 1013.3F   4/ 5
FOLLY BEACH CMAN 0500   44     290/  7/ 11 1012.5R
CAPERS NEARSHORE 0508   45 56  310/ 19/ 27 1011.7R
FRIPP NEARSHORE  0508   46 56  270/ 21/ 27 1012.3R


STATION/POSITION TIME  TEMP    WIND        PRES    WAVE   SWELL
                       AIR SEA DIR/SP/G            HT/PER HT/PER/DIR
                 (UTC) (F)     (DEG/KT/KT) (MB)    (FT/S) (FT/S/D)
5E ST. MARYS GA  0500      62                N/A     3/ 4
FRYING PAN BUOY  0510   50 63  320/ 27/ 37 1008.7
BUOY 41025       0510   45 72  310/ 31/ 39 1005.4
CAPE LOOKOUT NC  0500          310/ 20/ 26 1007.8R
BUOY 41002       0450   67 75  290/ 27/ 37 1004.5R  17/10
BUOY 41010       NOT AVBL
ST AUGUSTINE FL  0500   51 62  310/  7/ 10 1015.8R


$$



USA.gov is the U.S. government's official web portal to all federal, state and local government web resources and services.